THORAD AGENA D DEB, 4611

Orbit data source: Space-Track

THORAD AGENA D DEB, 4611 is space debris in SSO originally from a launch on Wed, 08 Apr 1970 UTC launched from the Air Force Western Test Range (AFWTR). Debris objects in space refer to the collection of defunct objects orbiting the Earth. Examples of debris include non-operational satellites, rocket bodies, and fragments generated from explosions, collisions, or faulty payload assembly.

Loading next visibility...
Identifier
4611, 1970-025P
Orbit
SSO
Country
Flag of USUS
Related business
Manufacturer
Unknown
Mission
Spacecraft
Bus & Motor
Unknown
Mass
Unknown
Launch date (UTC)
1970-04-08 (56 years ago)
Launch vehicle
Unknown
Launch site
Air Force Western Test Range (AFWTR)
Object type
Payload
Rocket body
Debris
Shape & HBR
Unknown shape, 0.2 m
Radar Cross Section
Medium (>0.1 m² and <1 m²)

Expand to show TLE details & history
Last TLE update: 1 day ago

TLE from 1 day ago
0 THORAD AGENA D DEB
1 04611U 70025P   26033.46546476  .00000808  00000-0  51050-3 0  9992
2 04611  99.8690  25.7553 0124421 110.4617 250.9955 14.03627788836790
Epoch: 2026-02-02T11:10Z
TLE epoch observation values (Epoch: 2026-02-02T11:10:16.155Z)
Latitude
-0.00002°
Longitude
85.52763°
Altitude
914.531 km
Speed
7.379 km/s
True Right ascension
01h 43m 01s
True Declination
0° 00' 00"
Sunlit
Object was in daylight at epoch
Visualization orbit readout
Latitude
Unknown
Longitude
Unknown
Altitude
Unknown
Speed
Unknown
Apparent Right ascension
Unknown
Apparent Declination
Unknown
Sunlit
N/A
Visualization observer readout
Local Sidereal Time
13:17:05
Azimuth
Unknown
Elevation
Unknown
Doppler factor
Unknown
Orbital elements
Apogee altitude
968.786 km
Perigee altitude
788.211 km
Semi-major axis
7,256.635 km
Eccentricity
0.01244
Inclination
99.869°
RAAN
25.7553°
Arg. of periapsis
110.4617°
True anomaly
249.65437°
Mean anomaly
250.9955°
Eccentric anomaly
250.32424°
Mean motion
3.51108 °/min
Orbital period
102.53 mins
BSTAR
0.0005105

Documentation

Showing up to 5 results
|